SES-15 (42709 NORAD) Tracking and Keplerian Element Data

This shows tracking and keplerian element data for the satellite.

Feedback or suggestion? Click here.




ElementValue
Catalog42709
NameSES-15
Epoch Orbit515
Epoch Day198.53844589
Epoch Year2018
RAAN45.3095
Inclination0.0192
Eccentricity3.21E-05
Argument of Perigee95.819
Mean Anonmoly218.8738
Mean Motion1.0026976
Decay Rate4E-07
L11 42709U 17026A 18198.53844589 .00000040 00000-0 00000-0 0 9995
L22 42709 0.0192 45.3095 0000321 95.8190 218.8738 1.00269760 5159

Live tracking and technical data element details for SES-15 (NORAD 42709). SES-15 can be tracked NOW for your location showing map with azimuth and elevation plus other details from your city location.

Track the satellite on the map from your city or location and see movement details for azimuth, elevation, latitude, longitude, range, height, and movement on the map or in text.







IsCatalogInMostPopularTable: catalog: 42709, numindb: 98
Update: records affected: 1



GetName: 42709 SES-15

Hit Count: updated at: Fri, 20 Jul 2018 20:24:07 GMT